^^
Daily Summary for January 11, 2026 Units:  Metric    English   Both
Daily Weekly Monthly Yearly Custom
  High: Low: Average:
Temperature: 17.2 °C 2.8 °C 8.6 °C
Dew Point: 7.2 °C 0 °C 3.1 °C
Humidity: 89% 43% 71%
Wind Speed: 0km/h 0km/h 0km/h
Wind Gust: 0km/h - -
Wind- -
Pressure: 1032.7 hPa 1026 hPa -
Precipitation: 0 mm    
Historical Graphs
 
 
Tabular Data for January 11, 2026
Time Temperature Dew Point Pressure Wind Wind Speed Wind Gust Humidity Rainfall Rate (Hourly) solar
00:04 4.4 °C 1.7 °C 1032.7 hPa Calm     82% 0 mm 0.00 W/m2
00:09 4.4 °C 1.7 °C 1032.7 hPa Calm     83% 0 mm 0.00 W/m2
00:14 4.4 °C 2.2 °C 1032.7 hPa Calm     84% 0 mm 0.00 W/m2
00:19 4.4 °C 1.7 °C 1032.7 hPa Calm     83% 0 mm 0.00 W/m2
00:24 4.4 °C 1.7 °C 1032.7 hPa Calm     83% 0 mm 0.00 W/m2
00:29 4.4 °C 1.7 °C 1032.7 hPa Calm     84% 0 mm 0.00 W/m2
00:34 4.4 °C 1.7 °C 1032.7 hPa Calm     84% 0 mm 0.00 W/m2
00:39 4.4 °C 1.7 °C 1032.7 hPa Calm     82% 0 mm 0.00 W/m2
00:44 4.4 °C 1.7 °C 1032.7 hPa Calm     83% 0 mm 0.00 W/m2
00:49 4.4 °C 1.7 °C 1032.7 hPa Calm     84% 0 mm 0.00 W/m2
00:54 4.4 °C 1.7 °C 1032.7 hPa Calm     83% 0 mm 0.00 W/m2
00:59 4.4 °C 1.7 °C 1032.7 hPa Calm     82% 0 mm 0.00 W/m2
01:04 4.4 °C 1.7 °C 1032.7 hPa Calm     82% 0 mm 0.00 W/m2
01:09 4.4 °C 1.7 °C 1032.7 hPa Calm     82% 0 mm 0.00 W/m2
01:14 4.4 °C 1.7 °C 1029.3 hPa Calm     82% 0 mm 0.00 W/m2
01:19 4.4 °C 1.7 °C 1029.3 hPa Calm     82% 0 mm 0.00 W/m2
01:24 4.4 °C 1.7 °C 1029.3 hPa Calm     83% 0 mm 0.00 W/m2
01:29 4.4 °C 1.7 °C 1029.3 hPa Calm     83% 0 mm 0.00 W/m2
01:34 4.4 °C 1.1 °C 1029.3 hPa Calm     82% 0 mm 0.00 W/m2
01:39 4.4 °C 1.7 °C 1029.3 hPa Calm     83% 0 mm 0.00 W/m2
01:44 3.9 °C 1.7 °C 1029.3 hPa Calm     83% 0 mm 0.00 W/m2
01:49 3.9 °C 1.1 °C 1029.3 hPa Calm     82% 0 mm 0.00 W/m2
01:54 3.9 °C 1.1 °C 1029.3 hPa Calm     82% 0 mm 0.00 W/m2
01:59 3.9 °C 1.1 °C 1029.3 hPa Calm     81% 0 mm 0.00 W/m2
02:04 3.9 °C 1.1 °C 1029.3 hPa Calm     81% 0 mm 0.00 W/m2
02:09 4.4 °C 1.7 °C 1029.3 hPa Calm     82% 0 mm 0.00 W/m2
02:14 4.4 °C 1.1 °C 1029.3 hPa Calm     82% 0 mm 0.00 W/m2
02:19 4.4 °C 1.1 °C 1029.3 hPa Calm     81% 0 mm 0.00 W/m2
02:24 4.4 °C 1.1 °C 1029.3 hPa Calm     80% 0 mm 0.00 W/m2
02:29 4.4 °C 1.1 °C 1029.3 hPa Calm     80% 0 mm 0.00 W/m2
02:34 4.4 °C 1.1 °C 1029.3 hPa Calm     81% 0 mm 0.00 W/m2
02:39 4.4 °C 1.1 °C 1029.3 hPa Calm     81% 0 mm 0.00 W/m2
02:44 4.4 °C 1.1 °C 1029.3 hPa Calm     81% 0 mm 0.00 W/m2
02:49 4.4 °C 1.7 °C 1029.3 hPa Calm     82% 0 mm 0.00 W/m2
02:54 3.9 °C 1.1 °C 1029.3 hPa Calm     81% 0 mm 0.00 W/m2
02:58 3.9 °C 1.1 °C 1029.3 hPa Calm     81% 0 mm 0.00 W/m2
03:04 3.9 °C 1.1 °C 1029.3 hPa Calm     80% 0 mm 0.00 W/m2
03:08 3.9 °C 0.6 °C 1029.3 hPa Calm     80% 0 mm 0.00 W/m2
03:14 3.9 °C 0.6 °C 1029.3 hPa Calm     80% 0 mm 0.00 W/m2
03:19 3.9 °C 0.6 °C 1029.3 hPa Calm     78% 0 mm 0.00 W/m2
03:23 3.9 °C 0.6 °C 1029.3 hPa Calm     78% 0 mm 0.00 W/m2
03:29 3.9 °C 0.6 °C 1029.3 hPa Calm     78% 0 mm 0.00 W/m2
03:33 3.9 °C 0 °C 1029.3 hPa Calm     77% 0 mm 0.00 W/m2
03:38 3.9 °C 0.6 °C 1029.3 hPa Calm     79% 0 mm 0.00 W/m2
03:44 3.9 °C 0.6 °C 1029.3 hPa Calm     79% 0 mm 0.00 W/m2
03:49 3.9 °C 0.6 °C 1029.3 hPa Calm     78% 0 mm 0.00 W/m2
03:54 3.9 °C 0.6 °C 1029.3 hPa Calm     79% 0 mm 0.00 W/m2
03:58 3.9 °C 0.6 °C 1029.3 hPa Calm     80% 0 mm 0.00 W/m2
04:04 3.9 °C 0.6 °C 1029.3 hPa Calm     81% 0 mm 0.00 W/m2
04:09 3.3 °C 0.6 °C 1029.3 hPa Calm     81% 0 mm 0.00 W/m2
04:14 3.3 °C 0.6 °C 1029.3 hPa Calm     81% 0 mm 0.00 W/m2
04:18 3.3 °C 0.6 °C 1029.3 hPa Calm     81% 0 mm 0.00 W/m2
04:24 3.3 °C 0.6 °C 1029.3 hPa Calm     80% 0 mm 0.00 W/m2
04:29 3.3 °C 0.6 °C 1029.3 hPa Calm     81% 0 mm 0.00 W/m2
04:34 3.3 °C 0.6 °C 1029.3 hPa Calm     80% 0 mm 0.00 W/m2
04:39 3.3 °C 0 °C 1029.3 hPa Calm     80% 0 mm 0.00 W/m2
04:44 3.3 °C 0 °C 1029.3 hPa Calm     80% 0 mm 0.00 W/m2
04:49 3.3 °C 0.6 °C 1029.3 hPa Calm     81% 0 mm 0.00 W/m2
04:54 3.3 °C 0 °C 1029.3 hPa Calm     80% 0 mm 0.00 W/m2
04:59 3.3 °C 0.6 °C 1029.3 hPa Calm     81% 0 mm 0.00 W/m2
05:04 3.3 °C 0.6 °C 1029.3 hPa Calm     81% 0 mm 0.00 W/m2
05:09 3.3 °C 0.6 °C 1029.3 hPa Calm     81% 0 mm 0.00 W/m2
05:14 3.3 °C 0.6 °C 1029.3 hPa Calm     81% 0 mm 0.00 W/m2
05:19 3.3 °C 0.6 °C 1029.3 hPa Calm     81% 0 mm 0.00 W/m2
05:24 3.3 °C 0.6 °C 1029.3 hPa Calm     82% 0 mm 0.00 W/m2
05:29 3.3 °C 0.6 °C 1029.3 hPa Calm     83% 0 mm 0.00 W/m2
05:34 3.3 °C 0.6 °C 1029.3 hPa Calm     83% 0 mm 0.00 W/m2
05:39 3.3 °C 0.6 °C 1029.3 hPa Calm     82% 0 mm 0.00 W/m2
05:44 3.3 °C 0 °C 1029.3 hPa Calm     81% 0 mm 0.00 W/m2
05:49 3.3 °C 0 °C 1029.3 hPa Calm     81% 0 mm 0.00 W/m2
05:54 2.8 °C 0.6 °C 1029.3 hPa Calm     83% 0 mm 0.00 W/m2
05:59 2.8 °C 0.6 °C 1029.3 hPa Calm     83% 0 mm 0.00 W/m2
06:04 2.8 °C 0 °C 1029.3 hPa Calm     82% 0 mm 0.00 W/m2
06:09 3.3 °C 0 °C 1029.3 hPa Calm     81% 0 mm 0.00 W/m2
06:14 3.3 °C 0 °C 1029.3 hPa Calm     81% 0 mm 0.00 W/m2
06:19 3.3 °C 0.6 °C 1029.3 hPa Calm     83% 0 mm 0.00 W/m2
06:24 3.3 °C 0.6 °C 1029.3 hPa Calm     82% 0 mm 0.00 W/m2
06:29 3.3 °C 0.6 °C 1029.3 hPa Calm     82% 0 mm 0.00 W/m2
06:34 3.3 °C 0.6 °C 1029.3 hPa Calm     81% 0 mm 0.00 W/m2
06:39 3.3 °C 0 °C 1029.3 hPa Calm     80% 0 mm 0.00 W/m2
06:44 3.3 °C 0.6 °C 1029.3 hPa Calm     81% 0 mm 0.00 W/m2
06:49 3.9 °C 0.6 °C 1029.3 hPa Calm     81% 0 mm 0.00 W/m2
06:54 3.9 °C 0.6 °C 1029.3 hPa Calm     80% 0 mm 0.00 W/m2
06:59 3.9 °C 0.6 °C 1029.3 hPa Calm     79% 0 mm 0.00 W/m2
07:04 3.9 °C 0.6 °C 1029.3 hPa Calm     79% 0 mm 0.00 W/m2
07:09 3.9 °C 0.6 °C 1029.3 hPa Calm     79% 0 mm 0.00 W/m2
07:14 3.9 °C 0.6 °C 1029.3 hPa Calm     79% 0 mm 0.00 W/m2
07:19 3.9 °C 0.6 °C 1029.3 hPa Calm     79% 0 mm 0.00 W/m2
07:24 3.9 °C 0 °C 1029.3 hPa Calm     78% 0 mm 0.00 W/m2
07:29 3.9 °C 0 °C 1029.3 hPa Calm     78% 0 mm 9.00 W/m2
07:33 3.9 °C 0 °C 1029.3 hPa Calm     78% 0 mm 12.00 W/m2
07:39 3.9 °C 0.6 °C 1029.3 hPa Calm     80% 0 mm 16.00 W/m2
07:44 3.9 °C 0.6 °C 1029.3 hPa Calm     80% 0 mm 19.00 W/m2
07:48 3.9 °C 0.6 °C 1029.3 hPa Calm     79% 0 mm 23.00 W/m2
07:53 3.9 °C 0.6 °C 1029.3 hPa Calm     79% 0 mm 26.00 W/m2
07:59 3.9 °C 0.6 °C 1029.3 hPa Calm     79% 0 mm 28.00 W/m2
08:03 4.4 °C 0.6 °C 1029.3 hPa Calm     79% 0 mm 30.00 W/m2
08:09 4.4 °C 1.1 °C 1029.3 hPa Calm     79% 0 mm 33.00 W/m2
08:14 4.4 °C 1.1 °C 1029.3 hPa Calm     79% 0 mm 39.00 W/m2
08:18 4.4 °C 1.7 °C 1029.3 hPa Calm     80% 0 mm 42.00 W/m2
08:24 4.4 °C 1.1 °C 1029.3 hPa Calm     79% 0 mm 49.00 W/m2
08:29 5 °C 1.7 °C 1029.3 hPa Calm     80% 0 mm 56.00 W/m2
08:33 5 °C 1.7 °C 1029.3 hPa Calm     81% 0 mm 60.00 W/m2
08:39 5 °C 1.7 °C 1029.3 hPa Calm     80% 0 mm 62.00 W/m2
08:44 5 °C 1.7 °C 1029.3 hPa Calm     79% 0 mm 63.00 W/m2
08:48 5.6 °C 1.7 °C 1029.3 hPa Calm     79% 0 mm 63.00 W/m2
08:54 5.6 °C 2.2 °C 1029.3 hPa Calm     78% 0 mm 58.00 W/m2
08:58 5.6 °C 2.2 °C 1029.3 hPa Calm     78% 0 mm 54.00 W/m2
09:03 6.1 °C 2.8 °C 1029.3 hPa Calm     78% 0 mm 51.00 W/m2
09:09 6.7 °C 2.8 °C 1029.3 hPa Calm     78% 0 mm 53.00 W/m2
09:14 6.7 °C 1.7 °C 1029.3 hPa Calm     70% 0 mm 174.00 W/m2
09:18 7.2 °C 1.7 °C 1029.3 hPa Calm     69% 0 mm 220.00 W/m2
09:24 7.8 °C 1.7 °C 1029.3 hPa Calm     65% 0 mm 269.00 W/m2
09:29 8.3 °C 2.2 °C 1029.3 hPa Calm     65% 0 mm 276.00 W/m2
09:33 8.3 °C 2.2 °C 1029.3 hPa Calm     65% 0 mm 260.00 W/m2
09:39 8.9 °C 1.1 °C 1029.3 hPa Calm     59% 0 mm 315.00 W/m2
09:44 9.4 °C 0.6 °C 1029.3 hPa Calm     56% 0 mm 294.00 W/m2
09:49 10 °C 1.1 °C 1029.3 hPa Calm     56% 0 mm 366.00 W/m2
09:54 10 °C 1.7 °C 1029.3 hPa Calm     56% 0 mm 380.00 W/m2
09:59 10.6 °C 1.7 °C 1029.3 hPa Calm     55% 0 mm 403.00 W/m2
10:04 11.1 °C 2.2 °C 1029.3 hPa Calm     55% 0 mm 418.00 W/m2
10:09 11.7 °C 2.2 °C 1029.3 hPa Calm     53% 0 mm 432.00 W/m2
10:14 11.7 °C 2.2 °C 1029.3 hPa Calm     53% 0 mm 431.00 W/m2
10:19 12.2 °C 2.8 °C 1029.3 hPa Calm     53% 0 mm 424.00 W/m2
10:24 12.2 °C 2.8 °C 1029.3 hPa Calm     52% 0 mm 438.00 W/m2
10:29 12.8 °C 2.8 °C 1029.3 hPa Calm     52% 0 mm 431.00 W/m2
10:34 12.8 °C 2.8 °C 1029.3 hPa Calm     51% 0 mm 413.00 W/m2
10:39 12.8 °C 2.8 °C 1029.3 hPa Calm     50% 0 mm 454.00 W/m2
10:44 12.8 °C 2.8 °C 1029.3 hPa Calm     51% 0 mm 466.00 W/m2
10:49 13.3 °C 3.3 °C 1029.3 hPa Calm     52% 0 mm 464.00 W/m2
10:54 13.3 °C 3.9 °C 1029.3 hPa Calm     52% 0 mm 473.00 W/m2
10:59 13.3 °C 3.3 °C 1029.3 hPa Calm     50% 0 mm 464.00 W/m2
11:04 13.3 °C 3.3 °C 1029.3 hPa Calm     49% 0 mm 462.00 W/m2
11:09 13.3 °C 3.3 °C 1029.3 hPa Calm     51% 0 mm 471.00 W/m2
11:14 13.9 °C 3.3 °C 1029.3 hPa Calm     50% 0 mm 454.00 W/m2
11:19 13.9 °C 3.9 °C 1029.3 hPa Calm     51% 0 mm 441.00 W/m2
11:24 13.9 °C 3.9 °C 1029.3 hPa Calm     51% 0 mm 443.00 W/m2
11:29 14.4 °C 3.3 °C 1029.3 hPa Calm     49% 0 mm 461.00 W/m2
11:34 14.4 °C 3.3 °C 1029.3 hPa Calm     48% 0 mm 468.00 W/m2
11:39 14.4 °C 3.3 °C 1029.3 hPa Calm     48% 0 mm 515.00 W/m2
11:44 14.4 °C 3.3 °C 1029.3 hPa Calm     47% 0 mm 527.00 W/m2
11:49 15 °C 4.4 °C 1029.3 hPa Calm     49% 0 mm 520.00 W/m2
11:54 15 °C 3.9 °C 1029.3 hPa Calm     47% 0 mm 489.00 W/m2
11:59 15 °C 3.9 °C 1029.3 hPa Calm     47% 0 mm 480.00 W/m2
12:04 15 °C 3.9 °C 1029.3 hPa Calm     47% 0 mm 480.00 W/m2
12:09 15 °C 3.3 °C 1029.3 hPa Calm     46% 0 mm 506.00 W/m2
12:14 15 °C 3.9 °C 1029.3 hPa Calm     47% 0 mm 533.00 W/m2
12:19 15.6 °C 4.4 °C 1029.3 hPa Calm     48% 0 mm 534.00 W/m2
12:24 15.6 °C 3.9 °C 1029.3 hPa Calm     46% 0 mm 538.00 W/m2
12:29 15.6 °C 3.9 °C 1029.3 hPa Calm     46% 0 mm 524.00 W/m2
12:34 15.6 °C 3.9 °C 1029.3 hPa Calm     46% 0 mm 529.00 W/m2
12:39 16.1 °C 4.4 °C 1029.3 hPa Calm     46% 0 mm 534.00 W/m2
12:44 16.1 °C 4.4 °C 1029.3 hPa Calm     47% 0 mm 541.00 W/m2
12:49 16.7 °C 5 °C 1029.3 hPa Calm     46% 0 mm 536.00 W/m2
12:54 16.7 °C 4.4 °C 1029.3 hPa Calm     44% 0 mm 540.00 W/m2
12:59 17.2 °C 4.4 °C 1029.3 hPa Calm     44% 0 mm 554.00 W/m2
13:04 17.2 °C 4.4 °C 1029.3 hPa Calm     43% 0 mm 506.00 W/m2
13:09 16.7 °C 4.4 °C 1029.3 hPa Calm     44% 0 mm 506.00 W/m2
13:14 16.7 °C 4.4 °C 1029.3 hPa Calm     45% 0 mm 497.00 W/m2
13:19 16.7 °C 4.4 °C 1029.3 hPa Calm     45% 0 mm 490.00 W/m2
13:24 17.2 °C 4.4 °C 1029.3 hPa Calm     44% 0 mm 485.00 W/m2
13:28 17.2 °C 5 °C 1029.3 hPa Calm     44% 0 mm 480.00 W/m2
13:34 17.2 °C 5 °C 1029.3 hPa Calm     44% 0 mm 480.00 W/m2
13:39 17.2 °C 5 °C 1029.3 hPa Calm     45% 0 mm 429.00 W/m2
13:43 17.2 °C 5 °C 1029.3 hPa Calm     45% 0 mm 352.00 W/m2
13:49 17.2 °C 5.6 °C 1029.3 hPa Calm     46% 0 mm 424.00 W/m2
13:54 17.2 °C 5.6 °C 1029.3 hPa Calm     47% 0 mm 425.00 W/m2
13:58 17.2 °C 6.1 °C 1029.3 hPa Calm     48% 0 mm 355.00 W/m2
14:04 17.2 °C 5.6 °C 1029.3 hPa Calm     47% 0 mm 404.00 W/m2
14:09 17.2 °C 6.1 °C 1029.3 hPa Calm     48% 0 mm 388.00 W/m2
14:13 17.2 °C 6.1 °C 1029.3 hPa Calm     49% 0 mm 336.00 W/m2
14:19 17.2 °C 6.1 °C 1029.3 hPa Calm     48% 0 mm 390.00 W/m2
14:24 17.2 °C 6.1 °C 1029.3 hPa Calm     48% 0 mm 374.00 W/m2
14:29 17.2 °C 6.7 °C 1029.3 hPa Calm     50% 0 mm 359.00 W/m2
14:34 17.2 °C 6.1 °C 1029.3 hPa Calm     49% 0 mm 325.00 W/m2
14:39 17.2 °C 6.1 °C 1029.3 hPa Calm     49% 0 mm 311.00 W/m2
14:44 17.2 °C 6.1 °C 1029.3 hPa Calm     49% 0 mm 283.00 W/m2
14:49 16.7 °C 6.7 °C 1029.3 hPa Calm     51% 0 mm 283.00 W/m2
14:54 16.7 °C 6.7 °C 1029.3 hPa Calm     51% 0 mm 301.00 W/m2
14:59 16.7 °C 6.7 °C 1029.3 hPa Calm     51% 0 mm 294.00 W/m2
15:04 16.7 °C 6.7 °C 1029.3 hPa Calm     51% 0 mm 230.00 W/m2
15:09 16.7 °C 7.2 °C 1026 hPa Calm     53% 0 mm 185.00 W/m2
15:14 16.1 °C 6.7 °C 1026 hPa Calm     53% 0 mm 190.00 W/m2
15:19 16.1 °C 6.7 °C 1026 hPa Calm     55% 0 mm 172.00 W/m2
15:24 15.6 °C 6.7 °C 1026 hPa Calm     56% 0 mm 135.00 W/m2
15:29 15.6 °C 6.7 °C 1026 hPa Calm     56% 0 mm 146.00 W/m2
15:34 15 °C 6.7 °C 1026 hPa Calm     58% 0 mm 153.00 W/m2
15:39 15 °C 6.7 °C 1026 hPa Calm     59% 0 mm 125.00 W/m2
15:44 15 °C 6.7 °C 1026 hPa Calm     59% 0 mm 114.00 W/m2
15:49 14.4 °C 6.7 °C 1026 hPa Calm     59% 0 mm 107.00 W/m2
15:54 14.4 °C 6.7 °C 1026 hPa Calm     60% 0 mm 86.00 W/m2
15:59 13.9 °C 6.7 °C 1026 hPa Calm     61% 0 mm 76.00 W/m2
16:04 13.9 °C 6.7 °C 1026 hPa Calm     63% 0 mm 54.00 W/m2
16:09 13.9 °C 7.2 °C 1026 hPa Calm     64% 0 mm 46.00 W/m2
16:14 13.3 °C 6.7 °C 1026 hPa Calm     63% 0 mm 40.00 W/m2
16:19 13.3 °C 6.7 °C 1026 hPa Calm     64% 0 mm 35.00 W/m2
16:24 13.3 °C 6.7 °C 1026 hPa Calm     65% 0 mm 30.00 W/m2
16:29 13.3 °C 6.7 °C 1026 hPa Calm     65% 0 mm 25.00 W/m2
16:34 12.8 °C 7.2 °C 1026 hPa Calm     69% 0 mm 21.00 W/m2
16:39 12.8 °C 7.2 °C 1026 hPa Calm     70% 0 mm 16.00 W/m2
16:44 12.8 °C 7.2 °C 1026 hPa Calm     71% 0 mm 12.00 W/m2
16:49 12.2 °C 7.2 °C 1026 hPa Calm     72% 0 mm 9.00 W/m2
16:54 12.2 °C 7.2 °C 1026 hPa Calm     72% 0 mm 7.00 W/m2
16:59 11.7 °C 7.2 °C 1026 hPa Calm     73% 0 mm 5.00 W/m2
17:04 11.7 °C 6.7 °C 1026 hPa Calm     73% 0 mm 0.00 W/m2
17:09 11.1 °C 6.7 °C 1026 hPa Calm     74% 0 mm 0.00 W/m2
17:14 11.1 °C 6.7 °C 1026 hPa Calm     74% 0 mm 0.00 W/m2
17:19 10.6 °C 6.1 °C 1026 hPa Calm     75% 0 mm 0.00 W/m2
17:24 10.6 °C 6.1 °C 1026 hPa Calm     77% 0 mm 0.00 W/m2
17:29 10 °C 6.1 °C 1026 hPa Calm     77% 0 mm 0.00 W/m2
17:34 9.4 °C 6.1 °C 1026 hPa Calm     79% 0 mm 0.00 W/m2
17:39 9.4 °C 6.1 °C 1026 hPa Calm     79% 0 mm 0.00 W/m2
17:44 9.4 °C 5.6 °C 1026 hPa Calm     79% 0 mm 0.00 W/m2
17:49 8.9 °C 5.6 °C 1026 hPa Calm     80% 0 mm 0.00 W/m2
17:54 8.9 °C 5.6 °C 1026 hPa Calm     80% 0 mm 0.00 W/m2
17:59 8.3 °C 5 °C 1026 hPa Calm     80% 0 mm 0.00 W/m2
18:04 8.3 °C 5.6 °C 1026 hPa Calm     82% 0 mm 0.00 W/m2
18:09 8.3 °C 5.6 °C 1026 hPa Calm     82% 0 mm 0.00 W/m2
18:14 8.3 °C 5 °C 1026 hPa Calm     81% 0 mm 0.00 W/m2
18:19 7.8 °C 5 °C 1026 hPa Calm     82% 0 mm 0.00 W/m2
18:23 7.8 °C 5 °C 1026 hPa Calm     82% 0 mm 0.00 W/m2
18:29 7.8 °C 5 °C 1026 hPa Calm     83% 0 mm 0.00 W/m2
18:34 7.2 °C 5 °C 1026 hPa Calm     83% 0 mm 0.00 W/m2
18:38 7.2 °C 5 °C 1026 hPa Calm     84% 0 mm 0.00 W/m2
18:44 7.2 °C 5 °C 1026 hPa Calm     85% 0 mm 0.00 W/m2
18:49 7.2 °C 5 °C 1026 hPa Calm     85% 0 mm 0.00 W/m2
18:53 7.2 °C 5 °C 1026 hPa Calm     85% 0 mm 0.00 W/m2
18:59 7.2 °C 5 °C 1026 hPa Calm     86% 0 mm 0.00 W/m2
19:04 7.2 °C 5 °C 1026 hPa Calm     86% 0 mm 0.00 W/m2
19:09 6.7 °C 5 °C 1026 hPa Calm     87% 0 mm 0.00 W/m2
19:14 6.7 °C 5 °C 1026 hPa Calm     87% 0 mm 0.00 W/m2
19:19 6.7 °C 5 °C 1026 hPa Calm     87% 0 mm 0.00 W/m2
19:24 6.7 °C 5 °C 1026 hPa Calm     87% 0 mm 0.00 W/m2
19:29 6.7 °C 4.4 °C 1026 hPa Calm     87% 0 mm 0.00 W/m2
19:34 6.7 °C 4.4 °C 1026 hPa Calm     87% 0 mm 0.00 W/m2
19:39 6.7 °C 4.4 °C 1026 hPa Calm     87% 0 mm 0.00 W/m2
19:44 6.7 °C 4.4 °C 1026 hPa Calm     87% 0 mm 0.00 W/m2
19:49 6.7 °C 4.4 °C 1026 hPa Calm     87% 0 mm 0.00 W/m2
19:54 6.7 °C 4.4 °C 1026 hPa Calm     88% 0 mm 0.00 W/m2
19:59 6.1 °C 4.4 °C 1026 hPa Calm     88% 0 mm 0.00 W/m2
20:04 6.1 °C 4.4 °C 1026 hPa Calm     88% 0 mm 0.00 W/m2
20:09 6.1 °C 4.4 °C 1026 hPa Calm     88% 0 mm 0.00 W/m2
20:14 6.1 °C 4.4 °C 1026 hPa Calm     89% 0 mm 0.00 W/m2
20:19 6.1 °C 4.4 °C 1026 hPa Calm     88% 0 mm 0.00 W/m2
20:24 6.1 °C 4.4 °C 1026 hPa Calm     88% 0 mm 0.00 W/m2
20:29 6.1 °C 4.4 °C 1026 hPa Calm     89% 0 mm 0.00 W/m2
20:34 6.1 °C 4.4 °C 1026 hPa Calm     88% 0 mm 0.00 W/m2
20:39 6.1 °C 4.4 °C 1026 hPa Calm     88% 0 mm 0.00 W/m2
El Dorado Weather
Compliments of Weather Underground - 2 mb